HAZ2830 ZBYC-ZSHC

Flight info

Callsign HAZ2830
Flight time 1h 30m
Altitude 33100
Route OML08D OMLIX W4 TAMIX B208 HFE R343 UPLEL W95 SAPIN A470 IGRAT IGRAT91
Aircraft A320/M-SDE3FGHIRWY/LB1

Departure

Time 2026-05-08 13:27
Airport Yuncheng Yanhu International Airport (ZBYC)

Arrival

Time 2026-05-08 14:57
Airport Hangzhou Xiaoshan International Airport (ZSHC)
Time Latitude Longitude Altitude Speed Heading
2026-05-08 13:04 35.11469 111.03641 1243 ft 0 kts 169°
2026-05-08 13:18 35.11473 111.03640 1241 ft 3 kts 171°
2026-05-08 13:18 35.11494 111.03638 1250 ft 3 kts 188°
2026-05-08 13:19 35.11515 111.03645 1241 ft 3 kts 209°
2026-05-08 13:19 35.11531 111.03660 1248 ft 3 kts 233°
2026-05-08 13:19 35.11541 111.03682 1241 ft 3 kts 257°
2026-05-08 13:19 35.11542 111.03685 1241 ft 0 kts 258°
2026-05-08 13:21 35.11541 111.03680 1241 ft 4 kts 258°
2026-05-08 13:21 35.11527 111.03593 1247 ft 12 kts 259°
2026-05-08 13:22 35.11512 111.03502 1241 ft 10 kts 261°
2026-05-08 13:22 35.11547 111.03453 1249 ft 7 kts 344°
2026-05-08 13:22 35.11592 111.03440 1245 ft 6 kts 346°
2026-05-08 13:22 35.11648 111.03426 1246 ft 15 kts 347°
2026-05-08 13:23 35.11788 111.03388 1247 ft 20 kts 348°
2026-05-08 13:23 35.11845 111.03297 1242 ft 14 kts 260°
2026-05-08 13:23 35.11824 111.03180 1250 ft 17 kts 258°
2026-05-08 13:23 35.11791 111.02986 1248 ft 27 kts 258°
2026-05-08 13:24 35.11752 111.02765 1251 ft 27 kts 258°
2026-05-08 13:24 35.11710 111.02526 1256 ft 29 kts 258°
2026-05-08 13:24 35.11667 111.02278 1249 ft 31 kts 258°
2026-05-08 13:24 35.11623 111.02027 1246 ft 30 kts 258°
2026-05-08 13:25 35.11579 111.01773 1248 ft 31 kts 258°
2026-05-08 13:25 35.11542 111.01561 1240 ft 19 kts 258°
2026-05-08 13:25 35.11489 111.01472 1249 ft 9 kts 230°
2026-05-08 13:25 35.11510 111.01443 1256 ft 5 kts 22°
2026-05-08 13:26 35.11536 111.01525 1238 ft 8 kts 77°
2026-05-08 13:26 35.11537 111.01530 1244 ft 2 kts 77°
2026-05-08 13:26 35.11572 111.01731 1250 ft 59 kts 78°
2026-05-08 13:26 35.11704 111.02494 1246 ft 122 kts 78°
2026-05-08 13:27 35.11916 111.03714 1259 ft 169 kts 78°
2026-05-08 13:27 35.12165 111.05180 1719 ft 182 kts 79°
2026-05-08 13:27 35.12427 111.06700 2481 ft 182 kts 80°
2026-05-08 13:27 35.12692 111.08216 3177 ft 186 kts 79°
2026-05-08 13:28 35.12978 111.09850 3483 ft 208 kts 79°
2026-05-08 13:28 35.13288 111.11643 3869 ft 221 kts 79°
2026-05-08 13:28 35.13609 111.13496 4431 ft 225 kts 79°
2026-05-08 13:28 35.13935 111.15373 5040 ft 226 kts 79°
2026-05-08 13:29 35.14077 111.17276 5599 ft 226 kts 99°
2026-05-08 13:29 35.13563 111.19101 5998 ft 237 kts 124°
2026-05-08 13:29 35.12553 111.20819 6286 ft 261 kts 127°
2026-05-08 13:29 35.11442 111.22668 6811 ft 276 kts 127°
2026-05-08 13:30 35.10299 111.24576 7602 ft 280 kts 127°
2026-05-08 13:30 35.09149 111.26502 8435 ft 282 kts 126°
2026-05-08 13:30 35.07989 111.28448 9268 ft 285 kts 126°
2026-05-08 13:30 35.06822 111.30411 10089 ft 287 kts 126°
2026-05-08 13:31 35.05627 111.32419 10579 ft 302 kts 125°
2026-05-08 13:31 35.04346 111.34577 10788 ft 326 kts 125°
2026-05-08 13:31 35.02973 111.36898 10947 ft 349 kts 124°
2026-05-08 13:31 35.01854 111.39606 11162 ft 366 kts 108°
2026-05-08 13:32 35.01050 111.42587 11704 ft 373 kts 108°
2026-05-08 13:32 35.00227 111.45614 12338 ft 378 kts 108°
2026-05-08 13:32 34.99387 111.48673 12971 ft 383 kts 108°
2026-05-08 13:32 34.98529 111.51766 13594 ft 387 kts 108°
2026-05-08 13:33 34.97672 111.54852 14168 ft 392 kts 108°
2026-05-08 13:33 34.96796 111.58014 14700 ft 396 kts 108°
2026-05-08 13:33 34.95910 111.61204 15239 ft 399 kts 108°
2026-05-08 13:33 34.95003 111.64469 15773 ft 403 kts 108°
2026-05-08 13:34 34.94100 111.67718 16286 ft 407 kts 108°
2026-05-08 13:34 34.93189 111.70999 16800 ft 410 kts 108°
2026-05-08 13:34 34.92281 111.74266 17305 ft 414 kts 108°
2026-05-08 13:34 34.91341 111.77646 17805 ft 418 kts 108°
2026-05-08 13:35 34.90416 111.80966 18307 ft 421 kts 108°
2026-05-08 13:35 34.89504 111.84374 18712 ft 425 kts 103°
2026-05-08 13:35 34.89012 111.87925 19118 ft 427 kts 92°
2026-05-08 13:35 34.89074 111.91544 19525 ft 428 kts 82°
2026-05-08 13:36 34.89692 111.95093 19919 ft 430 kts 70°
2026-05-08 13:36 34.90851 111.98445 20319 ft 431 kts 59°
2026-05-08 13:36 34.92401 112.01580 20722 ft 433 kts 56°
2026-05-08 13:36 34.93983 112.04718 21115 ft 436 kts 56°
2026-05-08 13:37 34.95573 112.07883 21504 ft 440 kts 56°
2026-05-08 13:37 34.97174 112.11078 21890 ft 443 kts 56°
2026-05-08 13:37 34.98782 112.14293 22274 ft 446 kts 56°
2026-05-08 13:37 35.00398 112.17529 22650 ft 448 kts 56°
2026-05-08 13:38 35.02024 112.20790 22997 ft 451 kts 56°
2026-05-08 13:38 35.03661 112.24072 23364 ft 454 kts 56°
2026-05-08 13:38 35.05311 112.27373 23714 ft 457 kts 56°
2026-05-08 13:38 35.06973 112.30695 24009 ft 460 kts 56°
2026-05-08 13:39 35.08647 112.34044 24276 ft 463 kts 56°
2026-05-08 13:39 35.10328 112.37417 24573 ft 466 kts 56°
2026-05-08 13:39 35.12016 112.40812 24837 ft 470 kts 55°
2026-05-08 13:39 35.13715 112.44236 25077 ft 473 kts 56°
2026-05-08 13:40 35.15428 112.47691 25314 ft 477 kts 55°
2026-05-08 13:40 35.17151 112.51169 25549 ft 480 kts 55°
2026-05-08 13:40 35.18883 112.54669 25787 ft 483 kts 55°
2026-05-08 13:40 35.20625 112.58196 26018 ft 486 kts 55°
2026-05-08 13:41 35.22386 112.61738 26256 ft 489 kts 55°
2026-05-08 13:41 35.24167 112.65291 26495 ft 491 kts 55°
2026-05-08 13:41 35.25966 112.68859 26699 ft 494 kts 54°
2026-05-08 13:41 35.27774 112.72442 26946 ft 497 kts 54°
2026-05-08 13:42 35.29596 112.76052 27189 ft 499 kts 54°
2026-05-08 13:42 35.31415 112.79669 27529 ft 499 kts 54°
2026-05-08 13:42 35.33231 112.83304 27832 ft 501 kts 54°
2026-05-08 13:42 35.35047 112.86949 28123 ft 502 kts 54°
2026-05-08 13:43 35.36865 112.90603 28427 ft 503 kts 54°
2026-05-08 13:43 35.38687 112.94268 28763 ft 504 kts 54°
2026-05-08 13:43 35.40510 112.97935 29091 ft 505 kts 54°
2026-05-08 13:43 35.42338 113.01611 29434 ft 505 kts 54°
2026-05-08 13:44 35.44169 113.05287 29781 ft 506 kts 53°
2026-05-08 13:44 35.46008 113.08980 30094 ft 508 kts 54°
2026-05-08 13:44 35.47843 113.12680 30378 ft 509 kts 54°
2026-05-08 13:44 35.49680 113.16397 30654 ft 510 kts 54°
2026-05-08 13:45 35.51490 113.20069 30941 ft 510 kts 54°
2026-05-08 13:45 35.53098 113.23968 31234 ft 516 kts 67°
2026-05-08 13:45 35.53926 113.28273 31521 ft 522 kts 83°
2026-05-08 13:45 35.53873 113.32727 31837 ft 524 kts 99°
2026-05-08 13:46 35.52945 113.37032 32156 ft 521 kts 115°
2026-05-08 13:46 35.51219 113.40895 32435 ft 514 kts 130°
2026-05-08 13:46 35.48819 113.44085 32659 ft 504 kts 146°
2026-05-08 13:46 35.45932 113.46417 32925 ft 492 kts 161°
2026-05-08 13:47 35.42787 113.47966 33144 ft 486 kts 167°
2026-05-08 13:47 35.39610 113.49382 33223 ft 488 kts 167°
2026-05-08 13:47 35.33198 113.52211 33204 ft 490 kts 167°
2026-05-08 13:48 35.27867 113.54567 33224 ft 490 kts 167°
2026-05-08 13:48 35.20382 113.57888 33219 ft 489 kts 167°
2026-05-08 13:49 35.13979 113.60726 33219 ft 489 kts 167°
2026-05-08 13:49 35.07577 113.63557 33184 ft 489 kts 167°
2026-05-08 13:50 35.01223 113.66362 33209 ft 489 kts 167°
2026-05-08 13:50 34.94826 113.69180 33203 ft 489 kts 167°
2026-05-08 13:51 34.89454 113.71547 33205 ft 491 kts 167°
2026-05-08 13:51 34.83002 113.74225 33208 ft 488 kts 170°
2026-05-08 13:52 34.76454 113.76354 33196 ft 486 kts 173°
2026-05-08 13:52 34.69928 113.78278 33213 ft 486 kts 173°
2026-05-08 13:53 34.63372 113.80328 33226 ft 487 kts 172°
2026-05-08 13:53 34.56825 113.82476 33215 ft 487 kts 171°
2026-05-08 13:54 34.50459 113.85665 33225 ft 500 kts 154°
2026-05-08 13:54 34.44838 113.90751 33222 ft 506 kts 146°
2026-05-08 13:55 34.39365 113.96036 33224 ft 506 kts 146°
2026-05-08 13:56 34.31081 114.03983 33224 ft 507 kts 146°
2026-05-08 13:56 34.25553 114.09263 33220 ft 506 kts 146°
2026-05-08 13:57 34.20038 114.14532 33240 ft 505 kts 146°
2026-05-08 13:57 34.14528 114.19797 33244 ft 505 kts 146°
2026-05-08 13:58 34.09024 114.25045 33244 ft 504 kts 146°
2026-05-08 13:58 34.03520 114.30283 33246 ft 504 kts 146°
2026-05-08 13:59 33.98015 114.35507 33243 ft 504 kts 146°
2026-05-08 13:59 33.92509 114.40725 33237 ft 504 kts 146°
2026-05-08 14:00 33.86998 114.45937 33233 ft 504 kts 146°
2026-05-08 14:00 33.81483 114.51140 33233 ft 504 kts 146°
2026-05-08 14:01 33.75965 114.56335 33236 ft 504 kts 146°
2026-05-08 14:01 33.70448 114.61538 33236 ft 504 kts 146°
2026-05-08 14:02 33.65160 114.67086 33234 ft 509 kts 135°
2026-05-08 14:02 33.60536 114.73526 33243 ft 509 kts 134°
2026-05-08 14:03 33.55917 114.79968 33245 ft 509 kts 134°
2026-05-08 14:03 33.51299 114.86399 33247 ft 509 kts 134°
2026-05-08 14:04 33.46676 114.92824 33248 ft 509 kts 134°
2026-05-08 14:04 33.42055 114.99241 33247 ft 509 kts 134°
2026-05-08 14:05 33.37429 115.05645 33248 ft 508 kts 134°
2026-05-08 14:05 33.32804 115.12033 33244 ft 507 kts 134°
2026-05-08 14:06 33.28191 115.18407 33259 ft 506 kts 134°
2026-05-08 14:06 33.23624 115.24721 33263 ft 505 kts 134°
2026-05-08 14:07 33.18992 115.31091 33262 ft 504 kts 134°
2026-05-08 14:07 33.14390 115.37404 33262 ft 504 kts 134°
2026-05-08 14:08 33.09789 115.43716 33255 ft 504 kts 134°
2026-05-08 14:08 33.05181 115.50015 33251 ft 504 kts 134°
2026-05-08 14:09 33.00575 115.56305 33249 ft 504 kts 134°
2026-05-08 14:09 32.95993 115.62542 33232 ft 504 kts 134°
2026-05-08 14:10 32.91384 115.68826 33237 ft 504 kts 135°
2026-05-08 14:10 32.86775 115.75106 33242 ft 504 kts 134°
2026-05-08 14:11 32.82265 115.81507 33243 ft 505 kts 133°
2026-05-08 14:11 32.77819 115.87976 33246 ft 505 kts 133°
2026-05-08 14:12 32.73350 115.94414 33246 ft 505 kts 133°
2026-05-08 14:12 32.68849 116.00822 33242 ft 505 kts 133°
2026-05-08 14:13 32.64332 116.07213 33223 ft 506 kts 134°
2026-05-08 14:13 32.59808 116.13611 33229 ft 507 kts 134°
2026-05-08 14:14 32.55284 116.20028 33233 ft 508 kts 134°
2026-05-08 14:14 32.50767 116.26470 33239 ft 508 kts 134°
2026-05-08 14:15 32.46247 116.32921 33240 ft 509 kts 134°
2026-05-08 14:15 32.41727 116.39347 33262 ft 507 kts 134°
2026-05-08 14:16 32.37209 116.45743 33275 ft 506 kts 134°
2026-05-08 14:16 32.32736 116.52174 33274 ft 506 kts 133°
2026-05-08 14:17 32.28365 116.58694 33238 ft 506 kts 133°
2026-05-08 14:17 32.23988 116.65237 33235 ft 508 kts 134°
2026-05-08 14:18 32.19572 116.71759 33243 ft 509 kts 134°
2026-05-08 14:18 32.15071 116.78214 33253 ft 509 kts 136°
2026-05-08 14:19 32.10487 116.84499 33271 ft 509 kts 136°
2026-05-08 14:19 32.05866 116.90828 33268 ft 510 kts 136°
2026-05-08 14:20 32.01271 116.97205 33271 ft 511 kts 136°
2026-05-08 14:20 31.96679 117.03595 33284 ft 511 kts 136°
2026-05-08 14:21 31.92084 117.09991 33259 ft 512 kts 137°
2026-05-08 14:21 31.87480 117.16388 33253 ft 512 kts 137°
2026-05-08 14:22 31.82860 117.22776 33235 ft 513 kts 137°
2026-05-08 14:22 31.78997 117.29949 33241 ft 529 kts 118°
2026-05-08 14:23 31.77048 117.38337 33253 ft 539 kts 98°
2026-05-08 14:23 31.76442 117.47122 33252 ft 540 kts 96°
2026-05-08 14:24 31.75823 117.55916 33245 ft 540 kts 97°
2026-05-08 14:24 31.75176 117.64716 33254 ft 541 kts 97°
2026-05-08 14:25 31.74535 117.73516 33254 ft 541 kts 97°
2026-05-08 14:25 31.73891 117.82327 33261 ft 541 kts 97°
2026-05-08 14:26 31.73243 117.91135 33267 ft 541 kts 97°
2026-05-08 14:26 31.72599 117.99941 33309 ft 541 kts 97°
2026-05-08 14:27 31.71942 118.08737 33280 ft 540 kts 97°
2026-05-08 14:27 31.71292 118.17526 33269 ft 540 kts 97°
2026-05-08 14:28 31.70691 118.26329 33157 ft 543 kts 97°
2026-05-08 14:28 31.70393 118.30747 32646 ft 542 kts 97°
2026-05-08 14:28 31.70090 118.35154 32147 ft 542 kts 97°
2026-05-08 14:28 31.69782 118.39561 31651 ft 542 kts 97°
2026-05-08 14:29 31.69470 118.43979 31173 ft 543 kts 97°
2026-05-08 14:29 31.69153 118.48401 30704 ft 544 kts 98°
2026-05-08 14:29 31.68830 118.52823 30238 ft 544 kts 98°
2026-05-08 14:29 31.68507 118.57244 29704 ft 544 kts 97°
2026-05-08 14:30 31.68182 118.61670 29177 ft 544 kts 97°
2026-05-08 14:30 31.67857 118.66092 28655 ft 543 kts 97°
2026-05-08 14:30 31.67532 118.70506 28136 ft 543 kts 97°
2026-05-08 14:30 31.67210 118.74915 27634 ft 542 kts 97°
2026-05-08 14:31 31.66889 118.79328 27147 ft 542 kts 97°
2026-05-08 14:31 31.66564 118.83732 26654 ft 542 kts 96°
2026-05-08 14:31 31.66237 118.88136 26173 ft 542 kts 96°
2026-05-08 14:32 31.64459 118.96611 25217 ft 533 kts 119°
2026-05-08 14:32 31.62554 119.00301 24665 ft 526 kts 131°
2026-05-08 14:32 31.60091 119.03430 24156 ft 520 kts 143°
2026-05-08 14:32 31.57261 119.06015 23620 ft 514 kts 148°
2026-05-08 14:33 31.54400 119.08519 23002 ft 510 kts 147°
2026-05-08 14:33 31.51575 119.10997 22420 ft 504 kts 147°
2026-05-08 14:33 31.49725 119.12623 22034 ft 501 kts 147°
2026-05-08 14:33 31.46025 119.15869 21269 ft 492 kts 146°
2026-05-08 14:34 31.44213 119.17446 20887 ft 489 kts 146°
2026-05-08 14:34 31.40621 119.20566 19964 ft 482 kts 146°
2026-05-08 14:34 31.38816 119.22137 19569 ft 476 kts 146°
2026-05-08 14:34 31.35336 119.25176 18810 ft 466 kts 146°
2026-05-08 14:35 31.32757 119.27430 18211 ft 460 kts 145°
2026-05-08 14:35 31.30214 119.29651 17564 ft 453 kts 145°
2026-05-08 14:35 31.28514 119.31137 17124 ft 449 kts 144°
2026-05-08 14:35 31.26026 119.33305 16498 ft 443 kts 144°
2026-05-08 14:36 31.23565 119.35443 15879 ft 438 kts 144°
2026-05-08 14:36 31.21133 119.37554 15321 ft 432 kts 144°
2026-05-08 14:36 31.18754 119.39621 14961 ft 421 kts 143°
2026-05-08 14:36 31.16432 119.41645 14607 ft 413 kts 143°
2026-05-08 14:37 31.14145 119.43644 14257 ft 409 kts 143°
2026-05-08 14:37 31.11873 119.45634 13896 ft 407 kts 143°
2026-05-08 14:37 31.09621 119.47607 13501 ft 403 kts 143°
2026-05-08 14:37 31.07388 119.49561 13125 ft 400 kts 143°
2026-05-08 14:38 31.05203 119.51477 12750 ft 397 kts 143°
2026-05-08 14:38 31.03004 119.53399 12375 ft 394 kts 143°
2026-05-08 14:38 31.00815 119.55303 12007 ft 391 kts 143°
2026-05-08 14:38 30.98638 119.57193 11744 ft 389 kts 143°
2026-05-08 14:39 30.96473 119.59072 11499 ft 387 kts 143°
2026-05-08 14:39 30.94316 119.60943 11263 ft 385 kts 143°
2026-05-08 14:39 30.92175 119.62804 11029 ft 384 kts 143°
2026-05-08 14:39 30.90067 119.64641 10785 ft 372 kts 143°
2026-05-08 14:40 30.88034 119.66409 10547 ft 359 kts 143°
2026-05-08 14:40 30.86067 119.68117 10310 ft 347 kts 143°
2026-05-08 14:40 30.84161 119.69768 10083 ft 337 kts 143°
2026-05-08 14:40 30.82307 119.71373 9853 ft 327 kts 144°
2026-05-08 14:41 30.80516 119.72922 9754 ft 313 kts 144°
2026-05-08 14:41 30.78812 119.74398 9773 ft 299 kts 143°
2026-05-08 14:41 30.77152 119.75837 9777 ft 297 kts 144°
2026-05-08 14:41 30.75499 119.77266 9778 ft 296 kts 144°
2026-05-08 14:42 30.73843 119.78695 9780 ft 296 kts 144°
2026-05-08 14:42 30.72189 119.80122 9781 ft 296 kts 144°
2026-05-08 14:42 30.70545 119.81557 9780 ft 295 kts 143°
2026-05-08 14:42 30.68915 119.83030 9583 ft 296 kts 142°
2026-05-08 14:43 30.67308 119.84502 9332 ft 293 kts 142°
2026-05-08 14:43 30.65721 119.85959 9077 ft 289 kts 142°
2026-05-08 14:43 30.64114 119.87346 8821 ft 286 kts 146°
2026-05-08 14:43 30.62416 119.88529 8568 ft 283 kts 151°
2026-05-08 14:44 30.60699 119.89619 8323 ft 280 kts 151°
2026-05-08 14:44 30.58996 119.90702 8076 ft 278 kts 150°
2026-05-08 14:44 30.57304 119.91779 7828 ft 277 kts 150°
2026-05-08 14:44 30.55624 119.92845 7586 ft 274 kts 150°
2026-05-08 14:45 30.53952 119.93904 7344 ft 272 kts 150°
2026-05-08 14:45 30.52298 119.94952 7106 ft 270 kts 150°
2026-05-08 14:45 30.50657 119.95990 6870 ft 268 kts 150°
2026-05-08 14:45 30.49030 119.97016 6632 ft 265 kts 149°
2026-05-08 14:46 30.47414 119.98038 6379 ft 263 kts 149°
2026-05-08 14:46 30.45813 119.99056 6117 ft 262 kts 149°
2026-05-08 14:46 30.44219 120.00067 5823 ft 260 kts 149°
2026-05-08 14:46 30.42637 120.01069 5523 ft 258 kts 149°
2026-05-08 14:47 30.41086 120.02052 5226 ft 257 kts 149°
2026-05-08 14:47 30.39525 120.03042 4980 ft 255 kts 149°
2026-05-08 14:47 30.37969 120.04026 4723 ft 254 kts 149°
2026-05-08 14:47 30.36421 120.05005 4467 ft 253 kts 149°
2026-05-08 14:48 30.34880 120.05980 4210 ft 252 kts 149°
2026-05-08 14:48 30.33345 120.06951 3956 ft 251 kts 149°
2026-05-08 14:48 30.31818 120.07919 3711 ft 250 kts 150°
2026-05-08 14:48 30.30291 120.08877 3462 ft 249 kts 153°
2026-05-08 14:49 30.28666 120.09544 3205 ft 246 kts 162°
2026-05-08 14:49 30.27045 120.10047 3036 ft 235 kts 163°
2026-05-08 14:49 30.25515 120.10505 2996 ft 219 kts 163°
2026-05-08 14:49 30.24088 120.10927 3005 ft 206 kts 163°
2026-05-08 14:50 30.22718 120.11327 3001 ft 201 kts 163°
2026-05-08 14:50 30.21372 120.11717 2999 ft 198 kts 163°
2026-05-08 14:50 30.20074 120.12095 2998 ft 186 kts 164°
2026-05-08 14:50 30.18850 120.12450 3020 ft 179 kts 163°
2026-05-08 14:51 30.17653 120.12794 3003 ft 176 kts 163°
2026-05-08 14:51 30.16502 120.13250 2998 ft 174 kts 154°
2026-05-08 14:51 30.15624 120.14156 3006 ft 174 kts 117°
2026-05-08 14:51 30.15376 120.15526 3010 ft 177 kts 97°
2026-05-08 14:52 30.15332 120.16947 3010 ft 178 kts 94°
2026-05-08 14:52 30.15307 120.19796 3004 ft 177 kts 94°
2026-05-08 14:52 30.15306 120.21221 3003 ft 178 kts 89°
2026-05-08 14:53 30.15694 120.22592 2998 ft 183 kts 67°
2026-05-08 14:53 30.16282 120.23899 2994 ft 183 kts 66°
2026-05-08 14:53 30.16869 120.25207 2944 ft 184 kts 67°
2026-05-08 14:53 30.17454 120.26516 2758 ft 183 kts 67°
2026-05-08 14:54 30.18035 120.27819 2527 ft 180 kts 66°
2026-05-08 14:54 30.18603 120.29093 2293 ft 176 kts 66°
2026-05-08 14:54 30.19158 120.30340 2069 ft 172 kts 66°
2026-05-08 14:54 30.19687 120.31527 1855 ft 158 kts 66°
2026-05-08 14:55 30.20166 120.32603 1639 ft 145 kts 66°
2026-05-08 14:55 30.20616 120.33617 1437 ft 140 kts 66°
2026-05-08 14:55 30.21058 120.34612 1258 ft 138 kts 66°
2026-05-08 14:55 30.21496 120.35598 1063 ft 138 kts 65°
2026-05-08 14:56 30.21934 120.36585 877 ft 138 kts 65°
2026-05-08 14:56 30.22372 120.37573 692 ft 138 kts 65°
2026-05-08 14:56 30.22810 120.38562 516 ft 138 kts 63°
2026-05-08 14:56 30.23251 120.39532 338 ft 139 kts 65°
2026-05-08 14:57 30.23691 120.40533 154 ft 138 kts 64°
2026-05-08 14:57 30.24118 120.41495 34 ft 126 kts 63°
2026-05-08 14:57 30.24445 120.42243 32 ft 80 kts 63°
2026-05-08 14:57 30.24625 120.42649 30 ft 42 kts 63°
2026-05-08 14:58 30.24713 120.42905 31 ft 30 kts 80°
2026-05-08 14:58 30.24722 120.43070 33 ft 7 kts 90°
2026-05-08 14:58 30.24722 120.43118 33 ft 3 kts 90°
2026-05-08 14:58 30.24722 120.43126 33 ft 0 kts 90°
2026-05-08 14:59 30.24713 120.43149 32 ft 9 kts 127°
2026-05-08 14:59 30.24621 120.43074 32 ft 11 kts 242°
2026-05-08 14:59 30.24583 120.42988 31 ft 0 kts 243°
2026-05-08 15:00 30.24578 120.42975 32 ft 9 kts 243°
2026-05-08 15:00 30.24530 120.42868 32 ft 17 kts 243°
2026-05-08 15:00 30.24478 120.42748 32 ft 17 kts 242°
2026-05-08 15:01 30.24426 120.42632 30 ft 16 kts 243°
2026-05-08 15:01 30.24382 120.42531 31 ft 12 kts 243°
2026-05-08 15:01 30.24348 120.42454 30 ft 9 kts 243°
2026-05-08 15:01 30.24323 120.42400 32 ft 7 kts 235°
2026-05-08 15:02 30.24295 120.42409 31 ft 4 kts 135°
2026-05-08 15:02 30.24277 120.42427 30 ft 3 kts 143°
2026-05-08 15:02 30.24215 120.42465 32 ft 18 kts 152°
2026-05-08 15:02 30.24116 120.42554 32 ft 18 kts 152°
2026-05-08 15:03 30.24039 120.42601 32 ft 6 kts 146°
2026-05-08 15:03 30.24036 120.42637 32 ft 1 kts 71°
2026-05-08 15:03 30.24040 120.42651 30 ft 2 kts 71°
2026-05-08 15:03 30.24044 120.42664 31 ft 1 kts 71°
2026-05-08 15:04 30.24044 120.42666 31 ft 0 kts 71°